When you browse on this site, cookies collect data to enhance your experience and personalize the content and advertising you see.
Visit our Privacy Policy to learn more. By continuing to use the site, you agree to this use of cookies and data.
  • In Austria
  • List of Countries
  • For 7 days
  • Water Temperature
  • Satellite Maps
  • Weather Map
  • News
  • Weather Widgets
  • user-avatar
    Login

    Hourly Weather Monterrey

    Today, 13 December, Thursday

    Time Temperature Precipitation Wind Pressure Humidity
    00:00 +18°C° 0.3 mm 2 mps 710 mmHg 79%
    01:00 +18°C° 0.3 mm 2 mps 710 mmHg 80%
    02:00 +17°C° 0.3 mm 2 mps 709 mmHg 81%
    03:00 +17°C° 0 mm 2 mps 709 mmHg 80%
    04:00 +16°C° 0 mm 2 mps 710 mmHg 79%
    05:00 +16°C° 0 mm 2 mps 710 mmHg 78%
    06:00 +17°C° 0 mm 3 mps 710 mmHg 71%
    07:00 +19°C° 0 mm 3 mps 711 mmHg 63%
    08:00 +20°C° 0 mm 3 mps 711 mmHg 56%
    09:00 +22°C° 0 mm 5 mps 712 mmHg 47%
    10:00 +24°C° 0 mm 6 mps 712 mmHg 39%
    11:00 +26°C° 0 mm 7 mps 712 mmHg 31%
    12:00 +26°C° 0 mm 7 mps 712 mmHg 29%
    13:00 +26°C° 0 mm 8 mps 712 mmHg 27%
    14:00 +27°C° 0 mm 8 mps 712 mmHg 25%
    15:00 +24°C° 0 mm 8 mps 712 mmHg 26%
    16:00 +22°C° 0 mm 8 mps 712 mmHg 27%
    17:00 +20°C° 0 mm 8 mps 713 mmHg 28%
    18:00 +17°C° 0 mm 8 mps 714 mmHg 30%
    19:00 +16°C° 0 mm 7 mps 714 mmHg 32%
    20:00 +14°C° 0 mm 7 mps 715 mmHg 35%
    21:00 +14°C° 0 mm 7 mps 715 mmHg 35%
    22:00 +12°C° 0 mm 7 mps 716 mmHg 35%
    23:00 +11°C° 0 mm 6 mps 716 mmHg 35%

    Tomorrow, 14 December, Friday

    Time Temperature Precipitation Wind Pressure Humidity
    00:00 +11°C° 0 mm 6 mps 716 mmHg 35%
    01:00 +10°C° 0 mm 6 mps 716 mmHg 35%
    02:00 +10°C° 0 mm 5 mps 716 mmHg 36%
    03:00 +9°C° 0 mm 5 mps 716 mmHg 36%
    04:00 +9°C° 0 mm 5 mps 716 mmHg 36%
    05:00 +9°C° 0 mm 5 mps 716 mmHg 36%
    06:00 +10°C° 0 mm 5 mps 717 mmHg 34%
    07:00 +11°C° 0 mm 6 mps 717 mmHg 32%
    08:00 +13°C° 0 mm 6 mps 718 mmHg 30%
    09:00 +14°C° 0 mm 7 mps 718 mmHg 26%
    10:00 +16°C° 0 mm 7 mps 718 mmHg 22%
    11:00 +17°C° 0 mm 7 mps 718 mmHg 19%
    12:00 +18°C° 0 mm 7 mps 717 mmHg 18%
    13:00 +18°C° 0 mm 7 mps 717 mmHg 17%
    14:00 +20°C° 0 mm 6 mps 717 mmHg 16%
    15:00 +17°C° 0 mm 5 mps 717 mmHg 18%
    16:00 +17°C° 0 mm 4 mps 717 mmHg 20%
    17:00 +14°C° 0 mm 3 mps 717 mmHg 22%
    18:00 +13°C° 0 mm 3 mps 717 mmHg 23%
    19:00 +12°C° 0 mm 3 mps 718 mmHg 24%
    20:00 +12°C° 0 mm 2 mps 718 mmHg 24%
    21:00 +10°C° 0 mm 2 mps 718 mmHg 24%
    22:00 +10°C° 0 mm 2 mps 718 mmHg 24%
    23:00 +10°C° 0 mm 2 mps 718 mmHg 24%

    Day after tomorrow, 15 December, Saturday

    Time Temperature Precipitation Wind Pressure Humidity
    00:00 +9°C° 0 mm 2 mps 718 mmHg 25%
    01:00 +9°C° 0 mm 2 mps 718 mmHg 26%
    02:00 +9°C° 0 mm 1 mps 718 mmHg 27%
    03:00 +9°C° 0 mm 1 mps 717 mmHg 27%
    04:00 +9°C° 0 mm 1 mps 717 mmHg 27%
    05:00 +8°C° 0 mm 1 mps 717 mmHg 27%
    06:00 +10°C° 0 mm 1 mps 718 mmHg 24%
    07:00 +12°C° 0 mm 1 mps 718 mmHg 22%
    08:00 +14°C° 0 mm 1 mps 719 mmHg 19%
    09:00 +16°C° 0 mm 1 mps 719 mmHg 18%
    10:00 +19°C° 0 mm 1 mps 719 mmHg 17%
    11:00 +20°C° 0 mm 1 mps 719 mmHg 16%
    12:00 +21°C° 0 mm 1 mps 718 mmHg 16%
    13:00 +21°C° 0 mm 1 mps 718 mmHg 16%
    14:00 +21°C° 0 mm 2 mps 717 mmHg 17%
    15:00 +19°C° 0 mm 1 mps 717 mmHg 21%
    16:00 +16°C° 0 mm 1 mps 716 mmHg 26%
    17:00 +14°C° 0 mm 1 mps 716 mmHg 30%
    18:00 +14°C° 0 mm 1 mps 717 mmHg 31%
    19:00 +13°C° 0 mm 1 mps 717 mmHg 32%
    20:00 +13°C° 0 mm 1 mps 718 mmHg 33%
    21:00 +13°C° 0 mm 1 mps 718 mmHg 33%
    22:00 +12°C° 0 mm 1 mps 718 mmHg 33%
    23:00 +12°C° 0 mm 1 mps 718 mmHg 33%

    16 December, Sunday

    Time Temperature Precipitation Wind Pressure Humidity
    00:00 +12°C° 0 mm 1 mps 718 mmHg 34%
    01:00 +11°C° 0 mm 1 mps 717 mmHg 35%
    02:00 +10°C° 0 mm 0 mps 717 mmHg 36%
    03:00 +10°C° 0 mm 1 mps 717 mmHg 36%
    04:00 +10°C° 0 mm 1 mps 717 mmHg 36%
    05:00 +10°C° 0 mm 1 mps 717 mmHg 36%
    06:00 +12°C° 0 mm 1 mps 718 mmHg 34%
    07:00 +14°C° 0 mm 1 mps 719 mmHg 32%
    08:00 +15°C° 0 mm 1 mps 719 mmHg 30%
    09:00 +18°C° 0 mm 1 mps 719 mmHg 29%
    10:00 +19°C° 0 mm 2 mps 719 mmHg 29%
    11:00 +20°C° 0 mm 2 mps 719 mmHg 28%
    12:00 +21°C° 0 mm 2 mps 719 mmHg 28%
    13:00 +21°C° 0 mm 2 mps 718 mmHg 28%
    14:00 +23°C° 0 mm 2 mps 717 mmHg 29%
    15:00 +19°C° 0 mm 2 mps 717 mmHg 35%
    16:00 +17°C° 0 mm 2 mps 717 mmHg 41%
    17:00 +15°C° 0 mm 2 mps 717 mmHg 47%
    18:00 +15°C° 0 mm 1 mps 718 mmHg 49%
    19:00 +14°C° 0 mm 1 mps 718 mmHg 52%
    20:00 +13°C° 0 mm 1 mps 719 mmHg 54%
    21:00 +13°C° 0 mm 1 mps 719 mmHg 54%
    22:00 +12°C° 0 mm 1 mps 719 mmHg 54%
    23:00 +12°C° 0 mm 1 mps 719 mmHg 54%

    17 December, Monday

    Time Temperature Precipitation Wind Pressure Humidity
    00:00 +12°C° 0 mm 1 mps 718 mmHg 53%
    01:00 +12°C° 0 mm 1 mps 718 mmHg 52%
    02:00 +11°C° 0 mm 1 mps 718 mmHg 51%
    03:00 +11°C° 0 mm 1 mps 718 mmHg 52%
    04:00 +11°C° 0 mm 1 mps 718 mmHg 52%
    05:00 +11°C° 0 mm 1 mps 718 mmHg 52%
    06:00 +12°C° 0 mm 1 mps 718 mmHg 49%
    07:00 +13°C° 0 mm 1 mps 719 mmHg 47%
    08:00 +15°C° 0 mm 1 mps 720 mmHg 44%
    09:00 +16°C° 0 mm 2 mps 719 mmHg 44%
    10:00 +18°C° 0 mm 2 mps 719 mmHg 45%
    11:00 +19°C° 0 mm 3 mps 719 mmHg 46%
    12:00 +20°C° 0 mm 3 mps 718 mmHg 47%
    13:00 +20°C° 0 mm 3 mps 717 mmHg 48%
    14:00 +20°C° 0 mm 3 mps 716 mmHg 49%
    15:00 +19°C° 0 mm 3 mps 716 mmHg 57%
    16:00 +17°C° 0 mm 2 mps 716 mmHg 65%
    17:00 +16°C° 0 mm 2 mps 716 mmHg 73%
    18:00 +16°C° 0 mm 2 mps 716 mmHg 76%
    19:00 +15°C° 0 mm 2 mps 717 mmHg 78%
    20:00 +15°C° 0 mm 1 mps 717 mmHg 81%
    21:00 +14°C° 0 mm 1 mps 717 mmHg 81%
    22:00 +14°C° 0 mm 2 mps 717 mmHg 81%
    23:00 +14°C° 0 mm 2 mps 716 mmHg 81%

    18 December, Tuesday

    Time Temperature Precipitation Wind Pressure Humidity
    00:00 +14°C° 0 mm 2 mps 716 mmHg 83%
    01:00 +14°C° 0 mm 2 mps 716 mmHg 85%
    02:00 +13°C° 0 mm 1 mps 716 mmHg 87%
    03:00 +13°C° 0 mm 1 mps 716 mmHg 88%
    04:00 +13°C° 0 mm 1 mps 716 mmHg 89%
    05:00 +13°C° 0 mm 1 mps 716 mmHg 90%
    06:00 +14°C° 0 mm 1 mps 716 mmHg 88%
    07:00 +14°C° 0 mm 1 mps 717 mmHg 85%
    08:00 +15°C° 0 mm 1 mps 717 mmHg 83%
    09:00 +17°C° 0 mm 2 mps 717 mmHg 77%
    10:00 +18°C° 0 mm 2 mps 716 mmHg 71%
    11:00 +20°C° 0 mm 3 mps 716 mmHg 65%
    12:00 +20°C° 0 mm 3 mps 715 mmHg 64%
    13:00 +20°C° 0 mm 3 mps 714 mmHg 62%
    14:00 +21°C° 0 mm 4 mps 714 mmHg 61%
    15:00 +20°C° 0 mm 3 mps 714 mmHg 66%
    16:00 +19°C° 0 mm 3 mps 714 mmHg 71%
    17:00 +18°C° 0 mm 2 mps 714 mmHg 76%
    18:00 +17°C° 0 mm 2 mps 714 mmHg 79%
    19:00 +17°C° 0 mm 2 mps 714 mmHg 83%
    20:00 +17°C° 0 mm 2 mps 715 mmHg 86%
    21:00 +16°C° 0 mm 2 mps 715 mmHg 88%
    22:00 +16°C° 0 mm 2 mps 715 mmHg 89%
    23:00 +16°C° 0 mm 3 mps 714 mmHg 91%
    Show more